Location: Albany
(35.0000°S, 118.0000°E)
Time: 13:36:25
(UTC-04:00)

ISS - All Passes

Search period start: 19 April 2015 00:00
Search period end: 29 April 2015 00:00
Orbit: 395 x 403 km, 51.6° (Epoch: 19 April)

Date Brightness Start Highest point End Pass type
(mag) Time Alt. Az. Time Alt. Az. Time Alt. Az.
19 Apr - 13:13:02 10° NNW 13:16:11 51° NE 13:19:23 10° ESE night (unlit)
19 Apr - 14:50:33 10° WSW 14:52:48 17° SSW 14:54:59 10° SSE night (unlit)
19 Apr - 19:43:35 10° SSW 19:45:51 17° SSE 19:48:09 10° ESE daylight
19 Apr - 21:19:14 10° WSW 21:22:26 48° NW 21:25:35 10° NNE daylight
20 Apr - 12:19:47 10° N 12:22:21 22° NE 12:25:00 10° ESE night (unlit)
20 Apr - 13:55:45 10° W 13:58:38 28° SW 14:01:32 10° SSE night (unlit)
20 Apr - 18:50:39 10° S 18:51:35 11° SSE 18:52:36 10° SE daylight
20 Apr - 20:25:12 10° SW 20:28:30 71° SE 20:31:45 10° NE daylight
21 Apr - 11:28:15 10° NE 11:28:31 10° NE 11:28:57 10° ENE night (unlit)
21 Apr - 13:01:19 10° WNW 13:04:31 58° SW 13:07:47 10° SE night (unlit)
21 Apr - 19:31:23 10° SSW 19:34:24 33° SE 19:37:25 10° ENE daylight
21 Apr - 21:08:11 10° W 21:10:37 19° NW 21:12:58 10° N daylight
22 Apr - 12:07:17 10° NW 12:10:29 59° NE 12:13:43 10° SE night (unlit)
22 Apr - 13:45:02 10° WSW 13:47:07 15° SSW 13:49:10 10° S night (unlit)
22 Apr - 18:37:45 10° SSW 18:40:08 19° SSE 18:42:34 10° ESE daylight
22 Apr - 20:13:31 10° WSW 20:16:39 42° NW 20:19:45 10° NNE daylight
23 Apr - 11:13:45 10° N 11:16:28 25° NE 11:19:14 10° ESE night (unlit)
23 Apr - 12:49:57 10° W 12:52:47 26° SW 12:55:36 10° SSE night (unlit)
23 Apr - 17:44:29 10° S 17:45:43 12° SSE 17:47:02 10° SE visible
23 Apr - 19:19:17 10° SW 19:22:34 80° SE 19:25:50 10° NE daylight
24 Apr - 10:21:21 10° NNE 10:22:27 12° NE 10:23:42 10° ENE night (unlit)
24 Apr - 11:55:18 10° WNW 11:58:29 51° SW 12:01:43 10° SE night (unlit)
24 Apr - 18:25:15 10° SSW 18:28:20 36° SE 18:31:24 10° ENE daylight
24 Apr - 20:02:15 10° W 20:04:29 17° NW 20:06:38 10° N daylight
25 Apr - 11:01:02 10° NW 11:04:15 67° NE 11:07:31 10° SE night (unlit)
25 Apr - 12:39:01 10° WSW 12:40:56 14° SSW 12:42:50 10° S night (unlit)
25 Apr - 17:31:24 10° SSW 17:33:55 20° SSE 17:36:27 10° E visible
25 Apr - 19:07:18 10° WSW 19:10:22 37° NW 19:13:24 10° NNE daylight
26 Apr - 10:07:14 10° NNW 10:10:04 28° NE 10:12:56 10° ESE night (unlit)
26 Apr - 11:43:40 10° W 11:46:25 24° SSW 11:49:09 10° SSE night (unlit)
26 Apr - 16:37:53 10° S 16:39:20 12° SSE 16:40:52 10° SE visible
26 Apr - 18:12:50 10° SW 18:16:08 90° SSE 18:19:23 10° NE visible
27 Apr - 09:14:22 10° NNE 09:15:52 13° NE 09:17:30 10° E night (unlit)
27 Apr - 10:48:46 10° WNW 10:51:56 46° SW 10:55:07 10° SE night (unlit)
27 Apr - 17:18:36 10° SSW 17:21:44 40° SE 17:24:50 10° ENE visible
27 Apr - 18:55:49 10° W 18:57:51 15° NW 18:59:46 10° NNW daylight
28 Apr - 09:54:16 10° NW 09:57:31 76° NE 10:00:48 10° SE night (unlit)
28 Apr - 11:32:26 10° WSW 11:34:14 14° SSW 11:35:58 10° S night (unlit)
28 Apr - 16:24:33 10° SSW 16:27:09 21° SSE 16:29:46 10° E visible
28 Apr - 18:00:34 10° WSW 18:03:34 33° NW 18:06:32 10° NNE visible
